www.pogodaiklimat.ru

Погода и климат >> Архив погоды >> Туркменистан >> Серхетабад


АРХИВ ПОГОДЫ в Серхетабаде

Время (UTC), дата Ветер
(напр.,м/с)
 
Видим.   Явления Облачность Т
(С)
Тd
(С)
f
(%)
Тe
(С)
Тes
(С)
Комфортность P
(гПа)
Po
(гПа)
Тmin
(С)
Tmax
(С)
R
(мм)
R24
(мм)
S
(см)
18 18.06 ЮЗ 1 4000 м ясно +24.3 +6.2 31 +24 +24 комфорт 1005.6 936.4 +35.8
21 18.06 ЮЗ 1
{5}
4000 м ясно +19.6 +7.0 44 +21 +21 комфорт 1006.5 936.2 120
00 19.06 ЮЗ 2 4000 м ясно +17.4 +4.3 42 +18 +18 по сезону 1006.9 936.0
03 19.06 З 2 4000 м ясно +19.2 +5.3 40 +20 +25 холодно 1006.7 936.3 +17.0
06 19.06 В 1 4000 м ясно +31.4 +8.4 24 +30 +51 опасность
солнечного
удара
1003.1 935.7 +17.0
09 19.06 СВ 5 4000 м ясно +35.5 +4.3 14 +33 +43 жарко 1001.5 934.9
12 19.06 СВ 6 4000 м ясно +36.5 +4.1 13 +33 +36 жарко 999.8 933.5
15 19.06 СВ 3 4000 м ясно +33.8 +4.5 16 +31 +31 жарко 1000.1 933.3 +36.7
18 19.06 ЮВ 1 4000 м ясно +25.7 +7.1 31 +26 +26 жарко 1004.4 935.6 +36.7
21 19.06 В 1
{5}
4000 м ясно +22.7 +8.9 41 +24 +24 комфорт 1004.6 935.1 0.0
00 20.06 ЮЗ 1 4000 м ясно +19.6 +7.6 46 +22 +22 комфорт 1006.0 935.7
03 20.06 З 2 4000 м ясно +20.7 +6.7 40 +22 +27 комфорт 1007.2 937.1 +18.5
06 20.06 С 2 4000 м ясно +32.1 +7.0 21 +30 +48 жарко 1004.2 936.8 +18.5
09 20.06 С 3
{12}
4000 м {гроза} 1/1 1500 м
[Cu hum]
+35.9 +5.6 15 +33 +48 жарко 1002.1 935.6
12 20.06 СВ 5 4000 м 3/3 1500 м
[Cu med, cong]
+36.6 +6.5 16 +34 +37 очень
жарко
1000.5 934.3
15 20.06 СВ 3 4000 м 3/0
[Ac cast]
+34.0 +6.4 18 +32 +32 жарко 1001.0 934.3 +36.8
18 20.06 В 2 4000 м ясно +25.6 +9.2 35 +26 +26 жарко 1004.3 935.5 +36.8
21 20.06 Ю 1
{9}
4000 м {гроза} ясно +23.0 +8.8 40 +24 +24 комфорт 1004.9 935.5 180
00 21.06 ЮЗ 1 4000 м ясно +20.0 +7.6 45 +22 +22 комфорт 1007.0 936.7
03 21.06 Ю 2 4000 м ясно +20.6 +7.4 42 +22 +27 комфорт 1008.0 937.8 +20.0
06 21.06 В 1 4000 м ясно +32.1 +8.8 24 +31 +52 опасность
солнечного
удара
1005.1 937.6 +20.0
09 21.06 С 3
{19}
4000 м {гроза} ясно +35.0 +6.1 17 +33 +49 жарко 1003.4 936.6
12 21.06 СВ 3 4000 м ясно +36.1 +5.3 15 +33 +40 жарко 1001.3 935.0
15 21.06 В 1 4000 м ясно +33.8 +6.2 18 +32 +32 жарко 1002.0 935.1 +36.3
18 21.06 ЮВ 1 4000 м ясно +24.6 +7.3 33 +25 +25 комфорт 1004.9 935.9 +36.3
21 21.06 штиль 0 4000 м ясно +21.1 +8.9 46 +22 +22 комфорт 1005.6 935.7
00 22.06 З 1 4000 м ясно +18.4 +4.1 39 +20 +20 по сезону 1007.4 936.7
03 22.06 З 1 4000 м ясно +20.3 +6.1 40 +22 +28 комфорт 1008.4 938.1 +17.2
06 22.06 З 1 4000 м ясно +33.2 +5.6 18 +31 +52 опасность
солнечного
удара
1006.0 938.7 +17.2
09 22.06 С 4
{8}
4000 м ясно +37.1 +4.5 13 +34 +47 очень
жарко
1004.3 937.9
12 22.06 С 4 4000 м ясно +38.1 +2.9 11 +35 +40 очень
жарко
1003.3 937.1
15 22.06 С 2 4000 м ясно +35.0 +6.1 17 +33 +33 жарко 1003.6 936.8 +38.2
18 22.06 С 2 4000 м ясно +31.2 +6.8 22 +30 +30 жарко 1005.7 938.0 +38.2
21 22.06 СВ 2 4000 м ясно +26.8 +7.6 30 +27 +27 жарко 1006.7 938.0
00 23.06 штиль 0 4000 м ясно +21.6 +9.3 45 +23 +23 комфорт 1008.1 938.2
03 23.06 З 1 4000 м ясно +22.4 +8.9 42 +24 +29 комфорт 1010.1 940.3 +20.5
06 23.06 СВ 3 4000 м ясно +32.8 +7.7 21 +31 +46 жарко 1008.2 940.6 +20.5
09 23.06 СВ 8 4000 м ясно +36.1 +4.0 14 +33 +37 жарко 1006.9 940.1
12 23.06 С 8 4000 м ясно +36.3 +4.0 13 +33 +35 жарко 1005.8 939.2
15 23.06 С 6 4000 м ясно +33.8 +3.4 15 +31 +31 жарко 1007.1 939.8 +37.0
18 23.06 СВ 1 4000 м ясно +26.6 +6.1 27 +26 +26 жарко 1009.1 940.1 +37.0
21 23.06 СВ 1 4000 м ясно +22.5 +5.6 33 +23 +23 комфорт 1009.7 939.8
00 24.06 штиль 0 4000 м ясно +18.5 +6.4 45 +19 +19 по сезону 1011.0 940.1
03 24.06 З 2 4000 м ясно +20.8 +3.8 33 +22 +27 комфорт 1011.8 941.4 +18.4
06 24.06 СВ 3 4000 м ясно +31.6 +18.4 45 +36 +51 опасность
солнечного
удара
1009.2 941.4 +18.4
09 24.06 СВ 5 4000 м ясно +35.1 +3.0 13 +32 +42 жарко 1007.1 940.1
12 24.06 СВ 5 4000 м ясно +36.0 +2.5 12 +33 +37 жарко 1005.5 938.8
15 24.06 СВ 3 4000 м ясно +33.8 +4.1 16 +31 +31 жарко 1006.0 938.8 +36.2
18 24.06 С 2 4000 м ясно +25.6 +6.1 29 +25 +25 комфорт 1009.5 940.3 +36.2
21 24.06 Ю 2 4000 м ясно +23.4 +6.5 34 +24 +24 комфорт 1010.4 940.6
00 25.06 ЮЗ 1 4000 м ясно +20.1 +7.7 45 +22 +22 комфорт 1011.1 940.6
03 25.06 З 1 4000 м ясно +21.2 +3.8 32 +21 +27 комфорт 1011.6 941.2 +13.0
06 25.06 В 1 4000 м ясно +32.4 +9.9 25 +32 +53 опасность
солнечного
удара
1008.6 941.0 +13.0
09 25.06 СВ 4 4000 м ясно +36.1 +4.0 14 +33 +47 жарко 1006.1 939.4
12 25.06 СВ 4 4000 м ясно +36.8 +2.9 12 +34 +39 очень
жарко
1004.4 938.0
15 25.06 С 2 4000 м ясно +34.6 +4.8 16 +32 +32 жарко 1004.5 937.6 +37.0

 

Местоположение метеостанции Серхетабад (Марыйский велаят, Туркменистан): широта 35.28 долгота 62.35 высота над уровнем моря 625 м.

В архиве по умолчанию представлена погода в Серхетабаде за последнюю неделю. Архивные данные за месяц целиком и за предыдущие месяцы, начиная с января 2011 года, Вы можете получить, выбрав интересующий диапазон дат из раскрывающегося списка и нажав кнопку "Ввод!".


*Определитесь, кто Вы:
робот инопланетянин человек

Внимание! Время в таблицах - всемирное. Для получения местного времени необходимо прибавить поправку, которая равна 5 ч.

Смотрите также архив погоды в соседних городах и на ближайших метеорологических станциях:

Погода в Тагтабазаре (Марыйский велаят, Туркменистан) (91 км)
Погода в Герате (Афганистан) (120 км)
Погода в Сарагте (Ахалский велаят, Туркменистан) (172 км)
Погода в Серахсе (Иран) (175 км)
Погода в Елетене (Марыйский велаят, Туркменистан) (225 км)
Погода в Байрамалы (Ахалский велаят, Туркменистан) (258 км)
Погода в Мешхеде (Иран) (269 км)
Погода в Торбете-Хейдерие (Иран) (284 км)
Погода в Теджене (Ахалский велаят, Туркменистан) (285 км)
Погода в Багтыярлыке (Марыйский велаят, Туркменистан) (314 км)

Пояснения к столбцам:

Ветер - указаны скорость ветра в м/с - средняя за 10 мин, порывы в срок и между сроками (в фигурных скобках) и направление, откуда дует ветер: С - северный, СВ - северо-восточный, В - восточный, ЮВ - юго-восточный, Ю - южный, ЮЗ - юго-западный, З - западный, СЗ - северо-западный.
Видимость - горизонтальная дальность видимости в метрах или километрах. При видимости от 1 до 10 км при отсутствии осадков обычно наблюдается дымка, при ухудшении видимости до 1 км и менее - туман. В сухую погоду видимость может ухудшаться дымом, пылью или мглою.
Явления - указаны атмосферные явления, наблюдавшиеся в срок или в последний час перед сроком; фигурными скобками обозначены явления, наблюдавшиеся между сроками (за 1-3 часа до срока); квадратными скобками обозначены град или гололедные отложения с указанием их диаметра в мм.
Облачность - указаны через наклонную черту общая и нижняя облачность в баллах и высота нижней границы облаков в метрах; квадратными скобками обозначены формы облаков: Ci - перистые, Cs - перисто-слоистые, Cc - перисто-кучевые, Ac - высококучевые, As - высокослоистые, Sc - слоисто-кучевые, Ns - слоисто-дождевые, Cu - кучевые, Cb - кучево-дождевые. Подробнее классификацию облаков см. в Атласе облаков (PDF).
T - Температура воздуха - температура, измеренная на высоте 2 м над землей.
Td - Температура точки росы - температура, при понижении до которой содержащийся в воздухе водяной пар достигнет насыщения.
f - Относительная влажность воздуха - влажноcть воздуха, измеренная на высоте 2 м над землей.
Te - Эффективная температура - температура, которую ощущает одетый по сезону человек в тени. Характеристика душности погоды. При расчете учитывается влияние влажности воздуха и скорости ветра на теплоощущения человека.
Tes - Эффективная температура на солнце - температура, которую ощущает человек, с поправкой на солнечный нагрев. Характеристика знойности погоды. Зависит от высоты солнца над горизонтом, облачности и скорости ветра. Ночью, в пасмурную погоду, а также при ветре 12 м/с и более поправка равна нулю.
P - Атмосферное давление - приведенное к уровню моря атмосферное давление.
Po - Атмосферное давление - измеренное на уровне метеостанции атмосферное давление.
Tmin - Минимальная температура - минимум температуры воздуха на высоте 2 м над землей.
Tmax - Максимальная температура - максимум температуры воздуха на высоте 2 м над землей.
R - Количество осадков - Количество выпавших осадков за период времени, мм. При наведении курсора мыши на число - период времени, за который выпало указанное количество осадков.
R24 - Количество осадков - Количество выпавших осадков за 24 часа, мм.
S - Снежный покров - Высота снежного покрова, см. При наведении курсора мыши на число - состояние снежного покрова и степень покрытия местности в баллах.